Weather History for Manistique, MI

Change the Weather History Date:

Friday, October 18, 2013

  Actual Average Record
Temperature  
Mean Temperature 40 °F -  
Max Temperature 50 °F 53 °F 67 °F (1963)
Min Temperature 31 °F 34 °F 22 °F (1948)
Degree Days  
Heating Degree Days 24    
Moisture  
Dew Point 40 °F    
Average Humidity 93    
Maximum Humidity 99    
Minimum Humidity 75    
Precipitation  
Precipitation 0.00 in - - ()
Sea Level Pressure  
Sea Level Pressure 29.76 in    
Wind  
Wind Speed 4 mph (WNW)    
Max Wind Speed 8 mph    
Max Gust Speed -    
Visibility 10 miles    
Events Rain    
Averages and records for this station are not official NWS values.
T = Trace of Precipitation, MM = Missing Value Source: NWS Daily Summary

Daily Weather History Graph

Daily Weather History Graph

Search for Another Location

Airport:

Trip Planner

Search our weather history database for the weather conditions in past years. The results will help you decide how hot, cold, wet, or windy it might be!

Date:

Astronomy

Oct. 18, 2013 Rise Set
Actual Time 8:05 AM EDT 6:52 PM EDT
Civil Twilight 7:35 AM EDT 7:23 PM EDT
Nautical Twilight 7:00 AM EDT 7:57 PM EDT
Astronomical Twilight 6:26 AM EDT 8:32 PM EDT
Moon 6:41 PM EDT (10/18) 7:40 AM EDT (10/18)
Length of Visible Light 11h 47m
Length of Day
10h 46m
Full, 100% of the Moon is Illuminated
Oct 18
Full
Oct 18
Full
Oct 26
Last Quarter
Nov 3
New
Nov 10
First Quarter

Hourly Weather History & Observations

Time (EDT) Temp. Windchill Dew Point Humidity Pressure Visibility Wind Dir Wind Speed Gust Speed Precip Events Conditions
12:19 AM 33.4 °F - 32.5 °F 96% 29.74 in 10.0 mi Calm Calm - N/A   Clear
12:38 AM 33.3 °F 30.2 °F 32.2 °F 96% 29.74 in 10.0 mi West 3.5 mph - N/A   Clear
12:59 AM 32.7 °F 29.6 °F 32.0 °F 97% 29.74 in 10.0 mi West 3.5 mph - N/A   Clear
1:18 AM 35.6 °F 30.7 °F 34.2 °F 94% 29.74 in 10.0 mi West 5.8 mph - N/A   Clear
1:38 AM 35.6 °F 32.8 °F 34.3 °F 95% 29.73 in 10.0 mi West 3.5 mph - N/A   Clear
1:59 AM 36.5 °F 32.7 °F 35.4 °F 96% 29.73 in 10.0 mi WNW 4.6 mph - N/A   Clear
2:18 AM 33.8 °F 30.8 °F 33.4 °F 99% 29.73 in 7.0 mi WNW 3.5 mph - N/A   Clear
2:39 AM 32.0 °F 28.7 °F 30.7 °F 95% 29.73 in 10.0 mi NW 3.5 mph - N/A   Clear
2:58 AM 31.8 °F - 31.5 °F 99% 29.73 in 7.0 mi Calm Calm - N/A   Clear
3:19 AM 33.6 °F 30.6 °F 33.1 °F 98% 29.73 in 10.0 mi NW 3.5 mph - N/A   Clear
3:39 AM 33.8 °F 28.6 °F 33.1 °F 97% 29.72 in 10.0 mi WNW 5.8 mph - N/A   Clear
3:58 AM 33.8 °F 29.6 °F 32.9 °F 96% 29.72 in 10.0 mi NW 4.6 mph - N/A   Scattered Clouds
4:19 AM 37.4 °F 33.8 °F 36.1 °F 95% 29.72 in 10.0 mi NW 4.6 mph - N/A   Scattered Clouds
4:39 AM 36.5 °F 33.9 °F 35.2 °F 95% 29.73 in 10.0 mi NW 3.5 mph - N/A   Mostly Cloudy
4:58 AM 36.5 °F - 35.1 °F 95% 29.73 in 10.0 mi Calm Calm - N/A   Overcast
5:19 AM 37.0 °F - 35.8 °F 95% 29.73 in 10.0 mi Calm Calm - N/A   Overcast
5:39 AM 37.9 °F 34.4 °F 36.7 °F 95% 29.73 in 10.0 mi West 4.6 mph - N/A   Overcast
5:58 AM 38.3 °F 35.9 °F 36.9 °F 95% 29.73 in 10.0 mi WNW 3.5 mph - N/A   Overcast
6:19 AM 37.9 °F - 36.5 °F 95% 29.72 in 10.0 mi Calm Calm - N/A   Mostly Cloudy
6:38 AM 36.5 °F 31.8 °F 35.1 °F 95% 29.73 in 10.0 mi West 5.8 mph - N/A   Scattered Clouds
6:59 AM 36.0 °F 31.1 °F 34.7 °F 95% 29.73 in 10.0 mi WNW 5.8 mph - N/A   Scattered Clouds
7:19 AM 35.2 °F 31.2 °F 34.0 °F 95% 29.73 in 10.0 mi WNW 4.6 mph - N/A   Scattered Clouds
7:38 AM 35.6 °F 30.7 °F 34.7 °F 97% 29.73 in 10.0 mi WNW 5.8 mph - N/A   Scattered Clouds
7:59 AM 36.5 °F 32.7 °F 35.6 °F 97% 29.74 in 10.0 mi WNW 4.6 mph - N/A   Scattered Clouds
8:19 AM 37.6 °F 34.0 °F 36.9 °F 97% 29.74 in 10.0 mi WNW 4.6 mph - N/A   Scattered Clouds
8:38 AM 40.1 °F 36.9 °F 39.0 °F 96% 29.74 in 10.0 mi NW 4.6 mph - N/A   Mostly Cloudy
8:59 AM 41.4 °F 38.4 °F 40.1 °F 95% 29.75 in 10.0 mi NW 4.6 mph - N/A   Overcast
9:18 AM 42.1 °F 39.2 °F 40.5 °F 94% 29.75 in 10.0 mi NW 4.6 mph - N/A   Overcast
9:38 AM 42.8 °F 40.1 °F 41.0 °F 93% 29.75 in 10.0 mi NW 4.6 mph - N/A   Overcast
9:59 AM 44.1 °F 41.5 °F 42.1 °F 93% 29.76 in 10.0 mi NW 4.6 mph - N/A   Overcast
10:18 AM 46.4 °F 42.9 °F 43.3 °F 89% 29.76 in 10.0 mi NW 6.9 mph - N/A   Overcast
10:39 AM 46.6 °F - 43.2 °F 88% 29.76 in 10.0 mi NW 5.8 mph - N/A   Overcast
10:59 AM 47.7 °F - 43.5 °F 86% 29.76 in 10.0 mi NW 5.8 mph - N/A   Overcast
11:18 AM 48.6 °F - 43.3 °F 82% 29.77 in 10.0 mi NW 4.6 mph - N/A   Overcast
11:39 AM 50.4 °F - 43.3 °F 77% 29.77 in 10.0 mi WNW 5.8 mph - N/A   Overcast
11:58 AM 50.4 °F - 43.2 °F 76% 29.77 in 10.0 mi West 3.5 mph - N/A   Overcast
12:19 PM 50.4 °F - 42.8 °F 75% 29.77 in 10.0 mi West 5.8 mph - N/A   Overcast
12:39 PM 49.6 °F - 42.3 °F 76% 29.77 in 10.0 mi WNW 5.8 mph - N/A   Overcast
12:58 PM 50.0 °F - 42.8 °F 76% 29.77 in 10.0 mi Calm Calm - N/A   Overcast
1:19 PM 49.6 °F - 43.9 °F 81% 29.77 in 10.0 mi SW 3.5 mph - N/A   Light Drizzle
1:38 PM 50.0 °F - 43.9 °F 79% 29.77 in 10.0 mi Calm Calm - N/A   Overcast
1:58 PM 50.0 °F - 43.9 °F 79% 29.76 in 10.0 mi WNW 3.5 mph - N/A Rain Rain
2:19 PM 49.3 °F - 44.8 °F 84% 29.76 in 10.0 mi Calm Calm - N/A Rain Light Rain
2:38 PM 49.5 °F - 45.0 °F 84% 29.75 in 10.0 mi Calm Calm - N/A Rain Light Rain
2:59 PM 50.0 °F - 45.7 °F 85% 29.75 in 10.0 mi West 3.5 mph - N/A   Light Drizzle
3:19 PM 49.1 °F - 45.7 °F 88% 29.76 in 10.0 mi West 5.8 mph - N/A Rain Rain
3:38 PM 46.4 °F - 44.6 °F 93% 29.77 in 4.0 mi Calm Calm - N/A Rain Rain
3:59 PM 46.0 °F 44.8 °F 44.6 °F 95% 29.77 in 10.0 mi NNW 3.5 mph - N/A   Drizzle
4:19 PM 46.2 °F 43.3 °F 44.8 °F 95% 29.77 in 7.0 mi North 5.8 mph - N/A Rain Light Rain
4:38 PM 46.4 °F 43.5 °F 44.8 °F 94% 29.76 in 10.0 mi NNW 5.8 mph - N/A Rain Light Rain
4:59 PM 46.2 °F 43.3 °F 44.6 °F 94% 29.76 in 10.0 mi North 5.8 mph - N/A Rain Rain
5:18 PM 46.0 °F 43.1 °F 44.8 °F 95% 29.77 in 10.0 mi NNW 5.8 mph - N/A Rain Light Rain
5:38 PM 45.7 °F 42.0 °F 43.9 °F 93% 29.77 in 10.0 mi NNW 6.9 mph - N/A Rain Rain
5:59 PM 45.3 °F 42.3 °F 43.9 °F 95% 29.78 in 10.0 mi NNW 5.8 mph - N/A Rain Rain
6:18 PM 45.0 °F 41.8 °F 43.7 °F 95% 29.78 in 10.0 mi NNW 5.8 mph - N/A   Overcast
6:39 PM 44.6 °F 41.4 °F 43.2 °F 95% 29.79 in 10.0 mi NNW 5.8 mph - N/A   Overcast
6:59 PM 44.1 °F 40.8 °F 42.8 °F 95% 29.79 in 10.0 mi NW 5.8 mph - N/A   Overcast
7:18 PM 43.7 °F 40.3 °F 42.1 °F 94% 29.79 in 10.0 mi NNW 5.8 mph - N/A   Overcast
7:39 PM 42.8 °F 38.0 °F 41.2 °F 94% 29.79 in 10.0 mi NNW 8.1 mph - N/A   Scattered Clouds
7:59 PM 41.5 °F 38.6 °F 40.3 °F 95% 29.80 in 10.0 mi NW 4.6 mph - N/A   Scattered Clouds
8:19 PM 40.3 °F 37.1 °F 39.4 °F 97% 29.81 in 10.0 mi WNW 4.6 mph - N/A   Scattered Clouds
8:38 PM 40.5 °F 38.4 °F 39.7 °F 97% 29.81 in 10.0 mi NW 3.5 mph - N/A   Mostly Cloudy
8:58 PM 41.4 °F 39.4 °F 40.6 °F 97% 29.82 in 10.0 mi West 3.5 mph - N/A   Overcast
9:19 PM 41.4 °F 39.4 °F 40.5 °F 97% 29.81 in 10.0 mi NNW 3.5 mph - N/A   Overcast
9:38 PM 41.5 °F 39.6 °F 40.6 °F 97% 29.81 in 10.0 mi NW 3.5 mph - N/A   Overcast
9:59 PM 41.4 °F 38.4 °F 40.6 °F 97% 29.82 in 10.0 mi West 4.6 mph - N/A   Overcast
10:18 PM 41.5 °F 38.6 °F 40.8 °F 97% 29.82 in 10.0 mi WNW 4.6 mph - N/A   Overcast
10:39 PM 41.7 °F 39.8 °F 40.8 °F 97% 29.83 in 10.0 mi West 3.5 mph - N/A   Drizzle
10:58 PM 41.9 °F 39.0 °F 41.0 °F 97% 29.82 in 10.0 mi WNW 4.6 mph - N/A   Overcast
11:19 PM 41.5 °F 38.6 °F 40.5 °F 96% 29.82 in 10.0 mi West 4.6 mph - N/A   Overcast
11:38 PM 41.4 °F 38.4 °F 40.5 °F 97% 29.82 in 10.0 mi West 4.6 mph - N/A   Overcast
11:58 PM 41.2 °F 37.3 °F 40.3 °F 97% 29.82 in 10.0 mi WNW 5.8 mph - N/A   Overcast